ARSAT 1

Last updated on Tue Sep 22 2026 00:03:13 GMT+0000 (Coordinated Universal Time)

1 40272U 14062B 26264.40983098 .00000000 00000+0 00000+0 0 9997 2 40272 0.0140 144.9998 0001711 24.7672 266.2651 1.00268982 43588
UTC large
Height (km)
Speed (km/s)
/
Latitude / Longitude
Inclination (degrees)
Orbital Period (minutes)
Azimuth
Elevation
Range (km)
Doppler Factor

Next 0 passes for location: London (51.5072 / 0.1276)

No passes found over London.
ARSAT 1